This is the latest recevied weather packets stored in our database for station/object DL7HMX-13. If no packets are shown the sender has not sent any weather packets the latest 10 day(s).
| Time | Temp. | Humidity | Pressure | Rain* | Wind** | Luminosity | Snow |
|---|---|---|---|---|---|---|---|
| 1777532428 | 8.33° C | 40% | 1030 hPa | 0 mm | - | 318 W/m² | - |
| 1777531831 | 7.22° C | 41% | 1030.2 hPa | 0 mm | - | 286 W/m² | - |
| 1777531218 | 6.67° C | 42% | 1030.2 hPa | 0 mm | - | 265 W/m² | - |
| 1777530621 | 6.67° C | 44% | 1030.1 hPa | 0 mm | - | 239 W/m² | - |
| 1777530023 | 6.67° C | 44% | 1030.1 hPa | 0 mm | - | 212 W/m² | - |
| 1777529426 | 6.67° C | 45% | 1030.1 hPa | 0 mm | - | 185 W/m² | - |
| 1777528829 | 6.11° C | 46% | 1030.1 hPa | 0 mm | - | 160 W/m² | - |
| 1777528231 | 6.11° C | 45% | 1030 hPa | 0 mm | - | 136 W/m² | - |
| 1777527619 | 5° C | 47% | 1030 hPa | 0 mm | - | 114 W/m² | - |
| 1777527022 | 4.44° C | 49% | 1030 hPa | 0 mm | - | 94 W/m² | - |
| 1777526424 | 4.44° C | 48% | 1030 hPa | 0 mm | - | 76 W/m² | - |
| 1777525826 | 4.44° C | 48% | 1029.9 hPa | 0 mm | - | 59 W/m² | - |
| 1777525230 | 3.89° C | 49% | 1030 hPa | 0 mm | - | 46 W/m² | - |
| 1777524616 | 2.78° C | 56% | 1030 hPa | 0 mm | - | 35 W/m² | - |
| 1777524019 | 2.78° C | 55% | 1029.9 hPa | 0 mm | - | 27 W/m² | - |
| 1777523421 | 2.78° C | 54% | 1029.7 hPa | 0 mm | - | 21 W/m² | - |
| 1777522825 | 2.22° C | 53% | 1029.5 hPa | 0 mm | - | 16 W/m² | - |
| 1777522227 | 2.22° C | 54% | 1029.4 hPa | 0 mm | - | 11 W/m² | - |
| 1777521631 | 2.22° C | 55% | 1029.4 hPa | 0 mm | - | 6 W/m² | - |
| 1777521017 | 1.67° C | 56% | 1029.3 hPa | 0 mm | - | 3 W/m² | - |
| 1777520420 | 2.22° C | 55% | 1029.3 hPa | 0 mm | - | 1 W/m² | - |
| 1777519822 | 1.67° C | 56% | 1029.3 hPa | 0 mm | - | 0 W/m² | - |
| 1777519226 | 1.67° C | 55% | 1029.3 hPa | 0 mm | - | 0 W/m² | - |
| 1777518628 | 2.22° C | 54% | 1029.2 hPa | 0 mm | - | 0 W/m² | - |
| 1777518030 | 2.22° C | 54% | 1029.2 hPa | 0 mm | - | 0 W/m² | - |
* Rain latest hour (hover to see other rain measurements)
** Current wind speed in m/s (hover to see current wind gust speed)